Weather History for La Mercy, South Africa

Change the Weather History Date:

Wednesday, August 21, 2013

  Actual Average Record
Temperature  
Mean Temperature 70 °F -  
Max Temperature 86 °F - - ()
Min Temperature 54 °F - - ()
Cooling Degree Days 5    
Growing Degree Days 20 (Base 50)    
Moisture  
Dew Point 54 °F    
Average Humidity 71    
Maximum Humidity 100    
Minimum Humidity 32    
Precipitation  
Precipitation 0.00 in - - ()
Sea Level Pressure  
Sea Level Pressure 29.78 in    
Wind  
Wind Speed 5 mph ()    
Max Wind Speed 26 mph    
Max Gust Speed 38 mph    
Visibility 8.2 miles    
Events      
T = Trace of Precipitation, MM = Missing Value Source: Averaged Metar Reports

Daily Weather History Graph

Daily Weather History Graph

Search for Another Location

Airport:

Trip Planner

Search our weather history database for the weather conditions in past years. The results will help you decide how hot, cold, wet, or windy it might be!

Date:

Astronomy

Aug. 21, 2013 Rise Set
Actual Time 6:22 AM SAST 5:34 PM SAST
Civil Twilight 5:58 AM SAST 5:59 PM SAST
Nautical Twilight 5:30 AM SAST 6:27 PM SAST
Astronomical Twilight 5:02 AM SAST 6:54 PM SAST
Moon 6:11 PM SAST (8/21) 6:12 AM SAST (8/21)
Length of Visible Light 12h 00m
Length of Day
11h 12m
Full, 100% of the Moon is Illuminated
Aug 21
Full
Aug 28
Last Quarter
Sep 5
New
Sep 12
First Quarter
Sep 19
Full

Hourly Weather History & Observations

Time (SAST) Temp. Dew Point Humidity Pressure Visibility Wind Dir Wind Speed Gust Speed Precip Events Conditions
12:00 AM 53.6 °F 51.8 °F 94% 29.95 in - Variable 1.2 mph - N/A   Clear
1:00 AM 53.6 °F 51.8 °F 94% 29.95 in 5.6 mi Variable 2.3 mph - N/A   Unknown
2:00 AM 57 °F 53 °F 84% 29.94 in 6 mi Calm Calm - -   Haze
2:00 AM 53.6 °F 53.6 °F 100% 29.92 in 5.6 mi Variable 2.3 mph - N/A   Unknown
3:00 AM 50.0 °F 50.0 °F 100% 29.89 in 5.6 mi Variable 1.2 mph - N/A   Unknown
4:00 AM 50.0 °F 50.0 °F 100% 29.89 in - Variable 2.3 mph - N/A   Clear
5:00 AM 55 °F 49 °F 72% 29.88 in 12 mi NNW 3.5 mph - -   Clear
5:00 AM 48.2 °F 48.2 °F 100% 29.86 in - Variable 1.2 mph - N/A   Clear
6:00 AM 48.2 °F 48.2 °F 100% 29.86 in - SW 3.5 mph - N/A   Clear
7:00 AM 50.0 °F 50.0 °F 100% 29.86 in - Variable 2.3 mph - N/A   Clear
8:00 AM 63 °F 46 °F 43% 29.87 in 12 mi Calm Calm - -   Partly Cloudy
8:00 AM 57.2 °F 55.4 °F 94% 29.86 in - Variable 1.2 mph - N/A   Clear
9:00 AM 66.2 °F 55.4 °F 68% 29.86 in - East 3.5 mph - N/A   Clear
10:00 AM 71.6 °F 50.0 °F 46% 29.86 in - Variable 2.3 mph - N/A   Clear
11:00 AM 77 °F 53 °F 32% 29.82 in 12 mi NE 5.8 mph - -   Scattered Clouds
11:00 AM 75.2 °F 55.4 °F 50% 29.83 in - ENE 4.6 mph - N/A   Clear
12:00 PM 82.4 °F 50.0 °F 32% 29.77 in - East 6.9 mph - N/A   Clear
1:00 PM 77.0 °F 60.8 °F 57% 29.71 in - East 10.4 mph - N/A   Clear
2:00 PM 75.2 °F 60.8 °F 61% 29.68 in - East 10.4 mph - N/A   Clear
3:00 PM 77.0 °F 57.2 °F 50% 29.65 in - ENE 15.0 mph - N/A   Clear
4:00 PM 77.0 °F 57.2 °F 50% 29.62 in - ENE 15.0 mph - N/A   Clear
5:00 PM 74 °F 57 °F 46% 29.62 in 12 mi NE 11.5 mph - -   Partly Cloudy
5:00 PM 73.4 °F 59.0 °F 61% 29.62 in - NE 18.4 mph 27.6 mph N/A   Clear
6:00 PM 69.8 °F 59.0 °F 68% 29.62 in - NE 10.4 mph - N/A   Clear
7:00 PM 69.8 °F 59.0 °F 68% 29.62 in - East 5.8 mph - N/A   Clear
8:00 PM 67 °F 61 °F 76% 29.63 in 6 mi South 4.6 mph - -   Smoke
8:00 PM 64.4 °F 60.8 °F 88% 29.62 in 5.6 mi South 3.5 mph - N/A   Unknown
9:00 PM 60.8 °F 59.0 °F 94% 29.62 in - SW 8.1 mph - N/A   Clear
10:00 PM 68.0 °F 55.4 °F 64% 29.71 in - SSW 24.2 mph 35.7 mph N/A   Clear
11:00 PM 67 °F 52 °F 47% 29.78 in - SW 23.0 mph - -  
11:00 PM 66.2 °F 53.6 °F 64% 29.77 in - SSW 26.5 mph 38.0 mph N/A   Clear